Location: Observatory
(52.1446°N, 0.4624°W)
Time: 00:31:02
(UTC+01:00)

ISS - Pass Details

Date: 21 May 2019
Orbit: 408 x 418 km, 51.6° (Epoch: 16 June)

Event Time Altitude Azimuth Distance (km) Brightness Sun altitude
Rises 02:26:39 0° 282° (WNW) 2,369 0.0 -15.2°
Reaches altitude 10° 02:28:52 10° 273° (W) 1,504 -1.1 -15.1°
Enters shadow 02:30:55 26° 243° (WSW) 863 -2.6 -15.0°
